Location: Laupheim
(48.2265°N, 9.8829°E)
Time: 02:57:10
(UTC+02:00)

ISS - Visible Passes

Search period start: 27 May 2018 00:00
Search period end: 06 June 2018 00:00
Orbit: 402 x 407 km, 51.6° (Epoch: 27 May)

Date Brightness Start Highest point End Pass type
(mag) Time Alt. Az. Time Alt. Az. Time Alt. Az.
27 May -3.2 00:21:52 10° WNW 00:25:05 55° NNE 00:26:26 30° ENE visible
27 May -1.4 01:58:25 10° WNW 01:59:02 14° W 01:59:02 14° W visible
27 May -3.0 21:52:46 10° W 21:55:59 55° NNW 21:59:13 10° ENE visible
27 May -2.8 23:29:37 10° WNW 23:32:49 46° N 23:35:44 12° E visible
28 May -2.8 01:06:09 10° WNW 01:08:21 38° W 01:08:21 38° W visible
28 May -2.6 22:37:20 10° WNW 22:40:30 43° N 22:43:39 10° ENE visible
29 May -3.8 00:13:56 10° WNW 00:17:13 81° NNE 00:17:42 61° E visible
29 May -2.7 21:44:59 10° W 21:48:09 45° N 21:51:20 10° ENE visible
29 May -3.4 23:21:42 10° WNW 23:24:57 60° NNE 23:27:06 19° E visible
30 May -2.0 00:58:19 10° WNW 00:59:44 21° W 00:59:44 21° W visible
30 May -2.9 22:29:27 10° WNW 22:32:39 48° N 22:35:51 10° E visible
31 May -3.8 00:05:59 10° WNW 00:09:09 58° SW 00:09:09 58° SW visible
31 May -3.9 23:13:42 10° WNW 23:16:59 89° SSW 23:18:36 28° ESE visible
01 Jun -1.3 00:50:44 10° W 00:51:13 12° W 00:51:13 12° W visible
01 Jun -3.5 22:21:26 10° WNW 22:24:42 66° NNE 22:27:58 10° E visible
01 Jun -2.7 23:58:06 10° W 00:00:41 29° SW 00:00:41 29° SW visible
02 Jun -3.5 23:05:41 10° WNW 23:08:52 49° SSW 23:10:11 29° SSE visible
03 Jun -3.8 22:13:21 10° WNW 22:16:38 78° SSW 22:19:41 11° ESE visible
03 Jun -1.7 23:50:38 10° W 23:52:20 15° SW 23:52:20 15° SW visible
04 Jun -2.4 22:57:49 10° W 23:00:36 25° SW 23:01:52 20° S visible
05 Jun -3.1 22:05:18 10° WNW 22:08:25 41° SSW 22:11:26 10° SE visible
